Regional Weather Roundup
Issued by NWS Upton, NY

Current Version | Previous Version | Graphics & Text | Print | Product List | Glossary Off
Versions: 1 2 3 4 5 6 7 8 9 10 11 12 13 14 15 16 17 18 19 20 21 22 23 24 25 26 27

000
ASUS41 KOKX 181709
RWROKX

REGIONAL WEATHER ROUNDUP
NATIONAL WEATHER SERVICE NEW YORK NY
100 PM EDT WED OCT 18 2017

NOTE: "FAIR" INDICATES FEW OR NO CLOUDS BELOW 12,000 FEET WITH NO
SIGNIFICANT WEATHER AND/OR OBSTRUCTIONS TO VISIBILITY.

NYZ071-072-176-178-NJZ106-104-181800-
NEW YORK CITY METRO AREA

CITY           SKY/WX    TMP DP  RH WIND       PRES   REMARKS
Central Park   SUNNY     69  43  38 CALM      30.33F
Bronx Bot Gard   N/A     70  45  40 W2        30.31F
LaGuardia APRT MOSUNNY   68  44  42 NW3       30.30F
Kennedy INTL   MOSUNNY   68  44  42 SW9       30.31F
Breezy Point     N/A     63 N/A N/A W6          N/A
Newark/Liberty MOSUNNY   71  43  36 CALM      30.31F
Teterboro      SUNNY     71  44  37 MISG      30.29F
$$

NYZ177-179-078>081-181800-
LONG ISLAND NEW YORK

CITY           SKY/WX    TMP DP  RH WIND       PRES   REMARKS
Jones Beach      N/A     61 N/A N/A W9          N/A
Matinecock PT    N/A     63 N/A N/A SW7         N/A
Farmingdale    SUNNY     70  45  40 NW5       30.30F
MacArthur/ISP  MOSUNNY   70  46  42 CALM      30.29F
Shirley        SUNNY     71  49  45 CALM      30.30F
Mt Sinai Harb    N/A     66 N/A N/A NW3         N/A
Westhampton    SUNNY     67  48  50 SE7       30.31F
East Hampton   FAIR      67  51  56 NW5       30.29F
Montauk          N/A     65  52  62 W7        30.30F
$$

NYZ052-065-067-181800-
HUDSON VALLEY

CITY           SKY/WX    TMP DP  RH WIND       PRES   REMARKS
White Plains   SUNNY     68  43  40 N3        30.30F
Larchmont Harb   N/A     63 N/A N/A SE7         N/A
Croton On Huds   N/A     64 N/A N/A SW2         N/A
Newburgh       SUNNY     66  48  52 VRB6      30.31F
Montgomery     SUNNY     69  47  45 SW6       30.28F
Poughkeepsie   SUNNY     65  44  46 VRB3      30.29F
Albany         MOSUNNY   65  45  48 SE5       30.28F
$$

NJZ001-105-106-008-010-013-015-019>022-104-181800-
NEW JERSEY

CITY           SKY/WX    TMP DP  RH WIND       PRES   REMARKS
Newark/Liberty MOSUNNY   71  43  36 CALM      30.31F
Teterboro      SUNNY     71  44  37 MISG      30.29F
Caldwell       SUNNY     68  48  48 S5        30.31F
Somerville     SUNNY     69  48  47 VRB3      30.30F
Linden         FAIR      66  43  42 CALM      30.33S
Perth Amboy      N/A     63 N/A N/A W5          N/A
Sussex         SUNNY     67  48  50 SE3       30.31F
Andover          N/A     68  47  46 CALM      30.31F
Trenton        SUNNY     68  47  46 VRB6      30.32F
Millville      SUNNY     68  49  50 MISG      30.35F
Atlantic City  SUNNY     69  45  41 SW7       30.34F
Wrightstown    SUNNY     66  43  42 VRB5      30.34S
Toms River       N/A     67  47  48 NW8       30.33F
Belmar         SUNNY     69  45  41 CALM      30.33F
$$

PAZ047>061-062-071-181800-
EASTERN PENNSYLVANIA

CITY           SKY/WX    TMP DP  RH WIND       PRES   REMARKS
Philadelphia   SUNNY     67  44  43 S8        30.34F
Allentown      SUNNY     69  45  41 SW5       30.32F
Scranton       SUNNY     64  45  49 W3        30.33F
$$

CTZ002-004>006-009-010-012-RIZ004-006-007-MAZ004-011-015-181800-
SOUTHERN NEW ENGLAND
 IN CT

CITY           SKY/WX    TMP DP  RH WIND       PRES   REMARKS
Bradley INTL   MOSUNNY   70  45  40 W6        30.26F
Hartford       SUNNY     70  46  42 SW8       30.27F
Danbury        SUNNY     68  45  43 VRB3      30.31F
Wtrbury/Oxford SUNNY     67  45  45 VRB5      30.30F
Norwalk Harbor   N/A     61 N/A N/A S6          N/A
Bridgeport     SUNNY     65  47  52 SW10      30.30F
Meriden        SUNNY     71  45  39 VRB3      30.28F
New Haven      SUNNY     66  47  50 VRB6      30.29F
Chester        NOT AVBL
Groton         SUNNY     65  51  60 SW14      30.27F
Wilimantic     SUNNY     69  45  41 W8        30.27F

 IN RI

CITY           SKY/WX    TMP DP  RH WIND       PRES   REMARKS
Providence     MOSUNNY   70  44  39 NW6       30.26F
Block Island   SUNNY     65  52  62 W12       30.29F
Westerly       SUNNY     69  47  45 SW8       30.28F
 IN MA

CITY           SKY/WX    TMP DP  RH WIND       PRES   REMARKS
Boston         MOSUNNY   68  42  38 VRB7      30.24F
Worcester      SUNNY     63  39  41 SW9       30.26F
Westfield      SUNNY     69  46  43 SW8       30.25F
Provincetown   SUNNY     64  48  56 W9        30.25F
Nantucket      SUNNY     67  54  63 W15       30.25F
$$

ANZ330-335-338-340-345-350-353-355-181800-
COASTAL MARINE OBSERVATIONS


STATION/POSITION TIME  SKY/WX   TEMP    WIND        PRES    VSBY  WAVE
                                AIR SEA DIR/SP/G                  HT/PER
                 (UTC)          (F)     (DEG/KT/KT) (MB)    (MI)  (FT/S)
NY HARB ENTRANCE 1550            60 65  290/  8/ 10 1026.8          2/11
20 S FIRE ISLAND 1550            60 63  290/ 10/ 12 1027.2          3/11
GREAT SOUTH BAY  1630            60 62  220/  8/  8   N/A
15 E BARNEGAT LI 1630               66                N/A           3/11
HUDSON CANYON    1650            62 65  280/ 12/ 16 1026.6          3/11
KINGS POINT      1642            64 65  240/  2/  3 1027.1
EXECUTION ROCKS  1630            67     190/  6/  8   N/A
WESTERN LI SOUND 1549            63     210/  6/  8   N/A           0
CENTRAL LI SOUND NOT AVBL
EASTERN LI SOUND NOT AVBL
ROBBINS REEF     1642            62     110/  3/  5 1027.3
$$


>>>>>>>>>>>>>>>>>>>>>>>>>>>> KEY <<<<<<<<<<<<<<<<<<<<<<<<<<<
>                                                          <
>     SKY/WX - Sky Condition/Present Weather               <
>     TMP    - Temperature in Fahrenheit                   <
>     DP     - Dew Point in Fahrenheit                     <
>     RH     - Relative Humidity in Percent                <
>     WIND   - Direction (from) and Speed in MPH           <
>     PRES   - Mean Sea Level Pressure (inches of Hg)      <
>     WCI    - Wind Chill Index                            <
>     VSB    - VISIBILITY IN MILES                         <
>     HX     - HEAT INDEX                                  <
>     TC     - TEMPERATURE IN CELSIUS                      <
>     VRB    - VARIABLE WIND DIRECTION                     <
>                                                          <
>>>>>>>>>>>>>>>>>>>>>>>>>>>> KEY <<<<<<<<<<<<<<<<<<<<<<<<<<<




USA.gov is the U.S. government's official web portal to all federal, state and local government web resources and services.